RH
85 72 52 43 44 57 75 83 66 87 82 78 89 87 61 54 57 55 62 59 50 53 56 67 71 71 66 62 57 54 53 64 75 54 59 57 58 46 54 54 44 70 59 51
90 78 67 49 46 51 66 84 80 89 84 76 83 66 59 57 57 56 56 56 51 50 58 68 74 70 62 63 61 58 54 64 73 50 44 50 58 57 51 59 63 61 57 34
99 82 72 58 48 57 76 80 77 77 76 71 66 62 63 59 53 52 49 51 48 52 59 69 77 75 67 62 58 62 54 68 48 50 40 51 56 59 57 54 78 58 56 41
100 88 74 62 48 56 80 81 63 66 66 56 56 54 58 61 57 49 45 46 49 50 64 65 79 78 70 63 62 55 53 67 60 51 50 57 54 53 64 57 45 45 34 48
99 95 74 68 47 63 58 65 71 71 65 57 47 50 48 53 54 50 45 50 57 52 56 57 72 72 71 55 64 55 57 64 48 54 44 44 44 51 66 65 54 53 51 52
98 100 81 70 48 55 63 78 70 62 64 58 50 52 45 49 49 52 53 46 54 65 59 54 60 63 69 65 66 64 57 62 62 46 56 41 34 37 59 69 64 57 62 50
96 99 87 72 60 49 54 69 77 67 54 53 50 45 46 53 53 52 58 56 52 54 48 49 46 52 61 64 70 61 64 63 73 76 35 38 27 36 40 62 61 62 49 45
86 98 90 78 69 59 53 61 73 68 53 52 45 50 56 52 55 64 59 64 62 61 46 56 50 55 37 55 70 70 61 65 76 63 49 30 32 39 45 45 28 56 58 49
80 88 90 86 75 64 61 64 70 69 58 47 43 50 51 59 61 63 64 59 58 56 61 51 45 50 35 58 62 61 63 62 49 71 32 18 18 31 36 30 33 44 52 51
79 81 89 91 82 70 65 64 66 69 69 63 52 56 55 59 63 67 72 63 59 55 63 51 52 49 55 60 62 72 69 71 67 71 61 46 31 34 36 21 16 43 49 51
82 77 84 88 84 76 66 69 64 64 80 74 66 68 54 56 62 63 63 63 68 76 61 57 57 50 55 59 58 65 59 72 78 73 63 34 40 38 33 28 46 46 49 50
78 84 76 82 88 82 68 73 71 65 69 70 70 67 66 68 65 69 77 49 67 66 68 73 64 55 59 48 38 62 50 44 50 52 45 33 43 32 37 49 49 44 45 44
78 85 80 77 86 85 73 68 68 71 83 82 76 76 67 65 64 66 69 74 62 67 64 69 63 50 58 52 54 49 53 57 56 53 43 52 48 45 43 46 43 46 46 49
78 83 84 76 81 88 81 71 68 68 80 72 70 70 69 67 65 64 69 65 69 72 76 68 67 53 56 56 50 53 44 57 56 58 49 50 50 52 47 46 50 52 52 53
88 83 84 87 93 92 88 77 69 69 64 69 86 76 72 72 67 67 67 69 75 80 72 77 69 78 71 75 73 77 57 50 48 43 38 41 39 46 52 54 53 56 56 59
90 89 88 91 96 93 89 84 73 71 71 79 77 82 77 77 74 75 76 80 86 86 80 81 86 80 70 79 76 57 56 51 44 39 48 50 53 56 50 50 55 55 56 55
94 96 91 92 99 95 85 78 74 76 72 74 81 96 81 77 79 87 87 84 90 84 86 86 88 83 85 84 81 52 60 60 52 49 54 49 49 51 50 52 54 53 50 48
100 98 95 98 100 98 94 87 64 75 72 80 91 88 84 75 88 88 93 91 89 89 89 92 90 88 91 91 69 64 53 57 55 50 48 50 57 59 58 57 53 55 56 48
100 100 100 99 100 99 88 85 87 83 74 90 96 84 82 84 92 90 92 91 92 90 93 93 90 91 96 70 67 65 68 58 55 62 62 61 61 62 60 54 52 54 46 44
96 100 100 100 99 93 86 82 86 94 91 94 95 92 94 89 94 95 93 94 95 95 88 93 97 84 73 72 74 73 68 66 65 61 63 65 64 65 52 42 42 38 41 42
98 100 99 100 97 84 94 98 97 97 98 98 96 92 98 88 94 95 90 96 96 98 88 95 95 95 80 70 70 69 75 73 61 51 54 59 58 55 48 48 44 43 44 45
97 97 99 98 98 100 99 99 99 99 96 98 98 96 90 94 88 93 97 93 90 97 92 94 92 84 74 73 60 63 71 64 58 54 57 50 44 41 41 42 44 42 43 44
94 97 100 100 100 99 98 98 99 98 97 98 98 98 94 94 89 96 94 95 95 88 98 87 88 74 79 73 69 68 62 56 53 52 45 44 48 46 44 44 42 43 44 41
99 99 98 98 98 96 93 92 91 91 97 96 94 98 92 94 94 96 97 90 90 97 98 92 89 83 79 74 70 68 66 63 66 61 48 44 40 41 42 43 44 46 46 38
100 99 97 98 88 98 100 97 98 100 90 90 94 96 93 98 97 92 91 99 97 89 90 87 86 81 80 77 71 60 55 51 49 50 57 52 48 46 42 35 38 45 46 46
99 100 100 98 98 99 99 100 99 98 87 93 92 99 100 98 97 97 96 97 98 84 90 90 85 83 80 76 61 53 48 46 42 42 41 42 47 48 44 41 40 39 42 43
99 99 92 96 98 96 93 97 95 88 83 89 95 96 82 96 100 99 95 93 84 86 90 95 82 77 77 72 58 54 48 47 48 48 47 46 43 47 56 67 34 37 37 44
Wind_Speed
13 14 15 15 12 8 2 2 1 2 5 3 1 2 2 2 1 1 2 2 1 0 3 3 3 3 1 2 1 2 1 4 3 1 0 1 1 2 4 4 3 2 2 4
12 13 15 15 14 7 1 2 1 3 1 2 1 2 1 1 2 1 2 1 2 1 2 2 2 2 1 5 2 4 3 2 3 4 2 2 3 3 3 4 2 4 4 4
11 12 14 16 15 7 1 2 1 2 2 0 5 3 1 1 1 2 2 1 2 2 2 4 3 0 2 3 2 2 2 3 4 6 3 3 3 3 4 4 3 4 5 3
10 11 13 16 15 4 4 2 2 2 1 2 2 3 4 2 1 1 2 3 4 1 2 1 3 1 1 2 4 3 3 2 2 1 1 1 2 4 6 7 3 5 3 8
9 10 11 15 15 2 2 3 3 2 0 2 2 2 3 5 2 0 0 3 4 2 2 1 5 4 2 2 3 2 4 2 1 0 2 3 3 5 7 5 3 6 3 6
8 9 10 13 13 3 2 1 1 3 3 1 3 2 2 3 5 2 2 2 4 4 1 1 2 2 4 3 4 2 2 3 3 2 4 5 7 8 10 6 6 7 7 9
8 8 8 9 12 9 2 2 2 3 2 1 2 1 1 2 0 4 2 3 3 2 3 3 3 7 8 8 6 2 4 4 2 2 2 1 5 2 3 6 4 9 2 4
8 8 6 6 8 6 5 2 2 2 1 1 1 2 3 2 3 3 2 2 1 1 4 3 3 4 3 4 5 6 2 4 3 3 3 6 1 4 6 6 7 13 11 6
9 9 7 5 6 6 1 6 2 2 4 3 0 2 2 3 1 3 2 1 1 5 3 2 3 4 3 2 1 3 4 5 3 2 2 5 3 2 4 3 5 4 9 9
12 9 8 7 5 4 1 2 2 2 3 2 1 2 3 4 2 2 1 1 2 3 2 1 3 3 3 2 5 4 2 2 4 2 2 8 5 3 5 2 5 3 7 7
13 11 8 8 5 3 1 2 3 1 2 2 1 2 2 1 2 4 3 3 2 2 2 2 2 3 4 1 4 5 6 6 4 2 2 6 5 4 6 4 0 3 4 6
16 13 9 8 6 4 2 2 1 1 4 2 1 3 2 1 0 3 1 2 3 4 3 2 2 2 1 3 2 1 3 6 4 8 6 4 6 3 1 4 4 3 5 3
18 14 12 9 7 5 3 2 3 2 2 2 2 1 2 1 1 1 3 2 2 2 2 3 2 2 4 3 5 2 4 4 3 1 2 7 7 3 2 4 4 4 4 5
18 16 13 10 8 5 4 3 3 2 3 2 2 1 1 1 0 1 0 1 2 4 2 2 2 2 3 3 2 4 4 5 4 5 7 5 7 5 5 3 4 5 4 4
18 17 15 13 10 6 5 5 5 5 2 3 2 0 2 2 0 2 2 2 2 1 1 1 3 1 2 0 1 4 5 7 5 5 4 2 3 3 7 8 7 7 7 6
22 17 16 15 12 8 2 3 7 8 5 3 1 1 3 4 5 7 5 3 2 2 2 2 2 2 2 2 3 5 5 3 4 2 1 2 2 2 4 6 6 5 6 6
24 19 18 17 16 13 3 2 3 7 5 2 1 2 1 0 2 2 2 3 2 2 0 1 0 1 2 2 4 4 3 5 4 3 5 1 2 2 4 6 8 9 9 9
24 24 18 18 19 12 5 6 6 5 3 3 2 2 1 5 1 1 2 2 2 2 0 1 1 0 1 4 8 4 1 4 4 4 3 0 5 7 5 8 7 6 6 4
6 22 19 13 7 6 5 7 9 5 1 2 2 4 4 3 2 2 2 1 1 0 2 2 3 2 5 7 5 4 7 4 4 4 5 5 6 7 6 6 5 6 4 3
4 20 6 3 6 10 16 3 2 3 2 2 3 1 2 3 1 1 2 2 1 1 3 2 3 5 10 8 5 4 3 7 8 5 3 4 4 7 6 6 4 5 5 4
2 1 2 6 20 5 2 2 3 2 2 4 3 3 4 2 3 3 1 2 1 1 3 3 3 4 4 3 3 2 4 6 6 3 4 7 8 8 6 5 6 5 3 2
3 9 7 7 2 1 4 4 2 4 6 4 5 4 3 2 1 3 1 3 2 4 2 2 4 4 5 4 3 2 6 8 7 7 8 10 11 11 8 6 4 2 1 3
8 2 2 3 3 5 7 9 4 4 4 5 4 3 4 2 1 3 3 4 4 2 2 4 5 2 3 5 4 4 5 9 11 8 12 13 11 8 6 4 2 3 6 8
3 4 4 5 4 5 5 4 5 4 4 9 3 4 3 2 3 3 4 2 3 3 3 7 3 6 7 6 4 6 7 8 8 7 10 9 8 5 3 4 4 5 8 12
3 4 5 6 3 2 2 1 2 1 7 7 4 3 3 2 4 2 4 4 4 6 6 4 4 7 8 8 6 7 7 7 7 8 7 7 6 4 5 7 7 7 11 13
2 4 3 2 1 1 2 2 1 1 6 2 2 3 3 4 5 5 9 8 8 5 4 3 5 8 8 7 7 7 10 10 9 8 6 6 6 7 8 9 11 12 14 15
4 5 4 2 2 3 3 4 4 3 4 3 3 6 8 4 3 5 5 6 4 4 3 2 7 12 11 8 6 10 11 10 9 7 8 8 6 8 8 9 17 15 18 20
Wind_Direction
345 358 4 1 358 357 24 95 50 165 165 49 38 104 201 299 270 187 272 255 139 154 32 47 104 119 2 340 260 129 339 114 111 159 215 118 96 136 137 116 216 65 142 271
342 353 2 3 357 2 335 108 173 162 255 111 335 277 314 13 326 305 303 10 36 10 86 73 31 125 9 21 58 162 189 61 84 5 14 10 223 198 126 108 86 193 135 262
336 349 359 2 354 343 129 97 42 336 57 246 137 162 201 240 252 293 323 290 106 81 58 22 143 172 16 7 123 132 133 96 144 176 196 136 187 188 162 137 118 169 221 202
328 345 357 1 355 345 160 45 233 186 240 316 129 139 167 168 230 299 14 20 25 345 122 106 124 243 94 352 335 44 82 109 108 131 65 185 216 200 186 192 188 164 233 197
321 340 358 2 4 24 95 134 135 21 177 311 133 2 195 174 194 320 310 117 18 355 117 238 198 138 222 177 15 68 5 130 133 272 12 32 274 234 210 216 214 261 183 252
316 336 355 5 15 16 93 118 102 107 317 34 97 223 179 186 130 34 49 142 108 71 22 38 75 80 73 92 137 115 83 117 71 270 349 336 297 220 190 188 206 155 196 222
298 327 348 7 18 32 75 86 115 97 238 165 220 189 137 146 165 159 2 34 113 186 112 127 53 48 62 58 39 58 122 102 78 203 6 353 239 156 197 198 221 211 232 197
270 308 336 357 15 30 55 74 147 128 156 201 334 117 116 98 31 61 101 29 298 7 58 59 43 352 19 18 29 18 49 120 93 130 200 285 240 197 156 167 269 204 198 165
245 278 316 333 359 18 85 49 91 116 121 249 339 144 166 163 140 3 20 28 14 62 79 91 156 206 219 235 343 37 61 72 116 139 200 231 246 200 177 145 285 201 159 164
233 251 299 315 318 0 114 67 45 125 114 259 124 172 181 129 108 128 320 174 82 52 89 132 175 237 167 186 181 173 83 30 164 157 256 287 239 167 148 149 253 154 154 155
232 234 259 297 285 315 259 147 49 102 131 267 82 27 151 87 123 155 190 75 333 60 131 165 218 180 221 138 181 179 169 150 194 115 208 294 162 90 169 223 268 157 142 161
230 228 240 273 308 279 280 198 188 83 102 163 107 102 102 53 10 142 184 199 166 189 106 190 133 205 114 174 262 74 224 187 182 187 213 238 217 214 221 170 160 173 127 110
224 225 228 244 277 267 272 225 179 133 88 11 82 162 105 133 33 88 141 279 194 190 177 156 161 219 134 188 243 218 238 168 225 29 228 236 245 230 211 189 160 135 126 136
223 224 226 231 243 261 255 243 207 181 113 124 268 144 134 55 312 172 216 221 97 94 78 130 153 198 171 214 233 199 204 141 195 261 275 294 265 219 189 145 110 112 117 137
217 219 221 227 225 236 255 253 234 223 172 189 207 310 16 1 94 144 155 122 97 103 83 110 229 163 122 341 11 249 189 191 170 228 226 162 236 246 167 154 166 164 140 130
216 214 216 220 219 218 250 324 227 202 187 112 187 325 6 34 99 98 88 85 91 95 150 225 270 272 120 161 235 252 207 207 190 227 106 193 346 80 124 144 151 147 141 140
214 212 212 216 213 204 194 216 305 170 171 105 40 346 294 45 52 38 62 64 88 112 155 253 231 284 137 195 242 275 235 240 217 184 133 108 189 192 155 130 135 132 122 123
213 214 208 214 205 203 230 219 154 170 107 63 121 258 324 172 155 96 349 93 57 34 177 320 211 340 124 249 241 250 45 105 123 114 55 82 116 101 95 113 122 113 117 115
195 202 192 167 178 185 182 183 192 217 126 179 137 176 216 159 120 110 71 77 114 317 197 232 137 213 226 228 212 198 195 190 175 81 82 99 119 127 119 111 113 130 141 125
328 154 156 168 179 151 125 107 73 23 334 51 212 86 177 140 129 76 92 9 154 193 238 116 212 253 265 252 214 190 193 173 146 118 131 128 134 154 154 158 145 147 151 153
269 63 80 117 141 146 103 173 185 143 231 207 227 173 142 244 122 152 172 176 154 31 260 187 252 264 240 187 190 227 230 186 183 159 162 164 152 155 146 147 156 156 160 198
96 113 112 135 174 152 167 189 153 195 221 186 161 182 144 160 146 110 181 142 160 250 172 236 256 250 211 179 162 151 157 149 150 154 141 142 146 152 146 151 163 184 221 289
112 36 170 184 164 182 198 186 198 194 186 179 162 128 130 110 61 78 120 140 208 125 213 242 236 247 191 175 149 124 133 136 127 126 137 139 139 148 154 169 214 280 298 306
164 181 236 213 181 233 199 181 173 193 129 151 128 115 133 141 96 142 116 156 127 201 236 237 243 204 187 179 168 136 155 152 142 143 143 139 144 159 192 238 265 282 288 299
218 149 233 220 240 38 360 299 103 115 146 143 111 77 102 118 118 159 121 158 218 212 229 232 223 185 165 169 168 160 155 158 155 153 155 161 171 208 258 264 275 277 283 290
231 239 218 231 260 144 80 347 201 221 150 95 68 124 112 180 150 167 207 172 217 234 215 212 156 161 166 164 171 172 165 164 160 164 174 182 204 226 252 275 279 287 290 289
230 231 211 182 142 180 176 164 192 191 166 192 134 162 194 104 156 212 193 205 217 214 222 192 178 168 171 164 164 163 165 167 176 194 211 219 228 240 255 273 288 300 297 293